Showing default

USA 74, 21799

Orbit data source: Space-Track

USA 74, 21799 is an American payload satellite in LEO that was launched on Fri, 08 Nov 1991 UTC via a TITAN 403A launch vehicle from the Air Force Western Test Range (AFWTR). Payloads include a variety of satellites, spacecraft, and rockets equipped with specific instruments for various scientific and technological missions. These include communications satellites like Starlink; space stations such as the ISS; scientific satellites like the Hubble; Earth observation satellites from companies like Planet Labs, Umbra, and HawkEye 360; GPS; miniature CubeSats for education and research; and military/defense satellites.

Loading next visibility...
USA 74 details
Identifier
21799, 1991-076C
Orbit
LEO
Last TLE update10 hours ago
Origin
Flag of USNRO/NRL (US)
ManufacturerNRL
MissionDefense Sigint
Bus & MotorNOSS B SSU, Unknown motor
Mass~400 kg wet, ~400 kg dry
Launch date (UTC)
1991-11-08 (33 years ago)
Launch vehicle
TITAN 403A
Launch site
Air Force Western Test Range (AFWTR)
Object type
Payload
Rocket body
Debris
Shape & HBRCyl, 1 m
Radar Cross Section1.178 m², Large (>1 m²)

Expand to show TLE details & history

TLE from 10 hours ago
0 USA 74
1 21799U 91076C   24361.14637254  .00006341  00000-0  57097-3 0  9994
2 21799  63.3000 143.0658 0896878  62.9541 306.0140 13.53256900 30553
Epoch: 2024-12-26T03:30Z
Definitive object data (Epoch: 2024-12-26T03:30:46.587Z)
Latitude-0.00006°
Longitude-4.7583°
Altitude712.065 km
Speed7.674 km/s
True Right ascension09h 32m 15s
True Declination0° 00' 00"
Sunlit
Object was in full shadow at TLE epoch
Visualization TLE readout
Latitude-62.97168°
Longitude-106.98985°
Altitude1,692.869 km
Speed6.734 km/s
Apparent Right ascension01h 44m 59s
Apparent Declination-53° 19' 43"
Sunlit
Object is in daylight
Visualization observer readout
Local Sidereal Time13:01:24
Azimuth205.291° SW
Elevation-74.681°
Doppler factor1
Orbital elements
Apogee altitude1,726.154 km
Perigee altitude392.091 km
Semi-major axis7,437.26 km
Eccentricity0.0896878
Inclination63.3°
RAAN143.0658°
Arg. of periapsis62.9541°
True anomaly297.15171°
Mean anomaly306.014°
Eccentric anomaly301.63904°
Mean motion3.38395 °/min
BSTAR0.00057097
Orbital period106.38 mins
Loading maneuver chart data...
Loading historical data...
Loading historical data...
Loading historical data...
Loading historical data...
Loading historical data...
Loading historical data...
Loading historical data...

USA 74 Visibility forecast

Observer location: undefined°, undefined

Span
Click to sort rows by Start time (UTC) header in descending order
Start Az.
Max El. time (UTC)
Max El. Az.
Max El.
End time (UTC)
End Az.
10 mins2024-12-26 19:57:41.807Z333.632° NNW2024-12-26 20:01:41.807Z34.195° NE41.082°2024-12-26 20:07:41.807Z135.217° SSE
6 mins2024-12-26 21:49:41.807Z269.537° W2024-12-26 21:51:41.807Z243.524° WSW17.834°2024-12-26 21:55:41.807Z204.437° SW
5 mins2024-12-27 11:35:41.807Z219.938° SW2024-12-27 11:37:41.807Z248.955° W42.143°2024-12-27 11:40:41.807Z29.947° NE
|